Погода Мирный

Погода Мирный : погода сейчас, прогноз погоды и архив. Всё, что Вы хотите узнать о погоде Мирный!

Хотите узнать прогноз погоды Мирный? Тогда Вам сюда: Погода Мирный

Поиск расширенной информации на нашем сайте:

Другие новости

Новости СМИ2

Главная страница сайта

Новости сайта

03.07.2017

Напоминаем, что на нашем специализированном сайте Метеоцентр.Азия вы можете получить высокодетализированные автоматические прогнозы погоды по пунктам России, СНГ и мира в авиационном формате (включающие направление и скорость ветра, видимость, явления погоды, количество и форму облачности, нижнюю и верхнюю границу облачности).


Погода Мирный - сегодня

Время (UTC), дата Ветер
(°,м/с) 
Видим.   Явления Облачность Т
(°С)
Тd
(°С)
f(%) Тe
(°С)
Pmin
(гПа)
dP
(гПа)
Po
(мм)
O2
(г/м3)
Тmin Tmax R s Состояние
почвы
03 18.08.17 300 (СЗ) 10 км  слаб. ливневой дождь  10/10 1200 м кучево-дожд. 
[Cb cap]
+12 +10.7 92 +15  1012.6  728  279           
06 18.08.17 280 (З) 10 км  в посл. час ливневой дождь  10/4 600 м кучево-дожд., средняя 
[Cb cap|Ac As]
+11.6 +9.8 89 +12  1012.3  -0.3  728  279           
09 18.08.17 280 (З) 10 км  слаб. ливневой дождь  10/4 600 м кучево-дожд., средняя 
[Cb cap|Ac As]
+12 +10.3 89 +14  1012.5  0.2  728  279           
12 18.08.17 130 (ЮВ) 10 км  слаб. ливневой дождь  10/4 600 м кучево-дожд., средняя 
[Cb cap|Ac As]
+11.2 +10 92 +13  1013.7  0.9  728  280    +12.3     
15 18.08.17 220 (ЮЗ) 10 км  {ливн. осадки}  10/3 600 м кучево-дожд., средняя 
[Cb cap|Ac As]
+9.7 +8.9 95 +10  1014.2  0.3  729  282           
18 18.08.17 200 (Ю) 10 км  {ливн. осадки}  10/3 600 м кучево-дожд., средняя 
[Cb cap|Ac As]
+8.8 +8.2 96 +9  1014.6  0.1  729  283           
21 18.08.17 290 (З) 10 км    10/3 200 м средняя, верхняя 
[St|Ac trans|Ci fib]
+8.7 +7.2 90 +10  1014.4  729  283           
00 19.08.17 230 (ЮЗ) 20000 м    10/0 верхняя 
[Ci fib]
+11.6 +9 84 +12  1014.4  0.4  729  280  +7.2    0.3    мокрая 
03 19.08.17 260 (З) 20000 м    10/0 верхняя 
[Ci fib]
+17.4 +10.5 64 +20  1013.8  0.3  729  274           
06 19.08.17 240 (ЮЗ) 4000 м  мгла{туман}  10/0 верхняя 
[Ci fib]
+20 +7.3 44 +20  1013.3  -0.2  729  273           
09 19.08.17 250 (З) 4000 м  мгла{туман}  10/0 верхняя 
[Ci fib]
+20.4 +8.6 47 +20  1013.1  729  272           
12 19.08.17 220 (ЮЗ) 4000 м  мгла{туман}  10/0 средняя, верхняя 
[Ac trans|Ci fib]
+16 +9.9 67 +19  1014.4  0.5  730  276    +20.4       
15 19.08.17 250 (З) 4000 м  мгла{туман}  10/0 средняя 
[Ac As]
+15.1 +9.3 68 +16  1014.9  0.4  730  277           
18 19.08.17 210 (ЮЗ) 4000 м  мгла{туман}  10/0 средняя 
[Ac As]
+11.8 +9.6 86 +13  1015.4  0.2  730  280           
21 19.08.17 200 (Ю) 4000 м  мгла{туман}  10/0 средняя, верхняя 
[Ac trans|Ci fib]
+9.4 +8.2 92 +10  1015.8  -0.2  730  283           
00 20.08.17 тихо ()   4000 м  мгла{туман}  10/0 верхняя 
[Ci fib]
+12.8 +8.6 76 +13  1015  -0.2  730  279  +9.3        влажная 
03 20.08.17 210 (ЮЗ) 10 км  {туман}  10/0 верхняя 
[Ci fib]
+19.7 +10.7 56 +24  1013.6  -0.4  729  272           
06 20.08.17 160 (Ю) 10 км  {туман}  10/3 1000 м кучево-дожд., верхняя 
[Cb cap|Ci fib]
+22.4 +9 42 +23  1011.3  -1.7  728  270           
09 20.08.17 170 (Ю) 10 км    10/4 1000 м кучево-дожд., верхняя 
[Cb cap|Ci fib]
+22.1 +8 40 +22  1010.5  -1  727  270           
12 20.08.17 120 (ЮВ) 10 км    10/0 верхняя 
[Ci fib]
+18.2 +9.3 56 +20  1009.8  -1.1  727  273    +22.6       
15 20.08.17 070 (В) 10 км    10/0 верхняя 
[Ci fib]
+13.4 +9.5 77 +15  1009.6  -0.9  726  277           
18 20.08.17 080 (В) 10 км    10/0 верхняя 
[Ci fib]
+10.6 +8.4 86 +11  1008.9  -1  725  280           
21 20.08.17 050 (СВ) 10 км    10/0 верхняя 
[Ci fib]
+9 +7.1 88 +9  1008.1  -1.1  724  281           
00 21.08.17 030 (СВ) 20000 м    10/0 средняя, верхняя 
[Ac trans|Cs]
+12.8 +9 78 +14  1007.1  -0.4  724  277  +8.7        сухая 
03 21.08.17 070 (В) 10 км    10/0 средняя, верхняя 
[As trans|Cs]
+15.8 +9.9 68 +18  1005.6  -1  723  274           
Время (UTC), дата Ветер
(°,м/с) 
Видим.   Явления Облачность Т
(°С)
Тd
(°С)
f(%) Тe
(°С)
Pmin
(гПа)
dP
(гПа)
Po
(мм)
O2
(г/м3)
Тmin Tmax R s Состояние
почвы

Для получения пояснительной информации подведите курсор к названию столбца.

ПОГОДА Мирный - архив

Всё, что Вы хотите узнать о погоде Мирный - удобно и подробно!

Выберите нужную дату (начиная с 1 января 2015* года) и нажмите кнопку "Найти".
Будут отображены архивные сводки погоды по пункту Мирный, начиная с указанной даты.


Отображать данные в формате CSV (для использования в таблицах Excel)


Внимание! Наш архив погоды предназначен исключительно для личного некоммерческого использования в познавательных целях. Если Вам необходимы официальные справки о состоянии погоды (для производственных, юридических, коммерческих и т.п. целей), обращайтесь в органы Росгидромета.

*Примечание: данная дата относится к архиву по метеостанциям СССР (Россия, СНГ, Балтия).
Архив по метеостанциям Зарубежной Европы и Азии (кроме Китая) хранится 10 дней, по другим регионам земного шара (Китай, Африка, Америка, Австралия, Океания) - 1 день.

Мирный - район местоположения метеостанции


Название, широта, долгота, высота метеостанции:
Мирный 62.5°ш. 114.0°д. 352 м над ур. моря [Российская Федерация]

Дополнительная информация

В oтличие oт бoльшинства пoгoдных сайтoв мы публикуем пoдрoбную метеoинфoрмацию в детальнoм прoфессиoнальнoм фoрмате.

Характеристики температуры и влажнoсти вoздуха измеряются на высoте 2 м в тени вдали oт зданий и деревьев.
Скoрoсть ветра измеряется на высoте 10 м (на урoвне рoста челoвека скoрoсть ветра ниже в 1.5-2 раза). Если метеoстанция нахoдится в гoрoде или в лесу, тo скoрoсть ветра занижена на 2-4 м/с пo сравнению с oткрытым местoм. Скoрoсть ветра над акватoриями крупных рек и oзёр, а также на вершинах хoлмoв на 2-5 м/с выше, чем в oбычных услoвиях.
Атмoсфернoе давление в разных тoчках местнoсти мoжет значительнo oтличаться oт давления на метеoстанции, в зависимoсти oт услoвий рельефа (при пoдъёме на 10 м давление пoнижается примернo на 1 мм рт.ст.).